Temp
-17 -17 -17 -17 -17 -17 -17 -17 -18 -18 -18 -18 -18 -19 -19 -19 -19 -20 -20 -20 -20 -20 -20 -19 -18 -18 -17
-17 -17 -17 -17 -17 -18 -18 -19 -19 -19 -19 -19 -20 -20 -20 -20 -20 -20 -21 -21 -21 -21 -21 -20 -19 -18 -18
-17 -18 -18 -18 -18 -19 -20 -20 -20 -20 -20 -20 -21 -21 -21 -21 -22 -23 -23 -23 -22 -22 -21 -21 -20 -19 -18
-18 -18 -19 -20 -20 -21 -21 -21 -21 -21 -21 -21 -21 -21 -22 -23 -23 -23 -24 -24 -23 -22 -22 -21 -20 -20 -19
-19 -19 -20 -21 -22 -22 -22 -22 -22 -22 -22 -22 -22 -23 -24 -24 -24 -24 -24 -23 -23 -23 -22 -22 -20 -20 -20
-20 -20 -22 -23 -23 -23 -23 -23 -23 -23 -23 -24 -24 -24 -24 -24 -24 -24 -24 -24 -24 -23 -23 -22 -21 -21 -20
-21 -22 -23 -24 -24 -24 -23 -23 -23 -24 -24 -25 -24 -24 -24 -24 -24 -24 -24 -24 -24 -23 -23 -22 -22 -22 -21
-22 -23 -24 -24 -24 -24 -24 -24 -25 -25 -25 -25 -25 -25 -25 -25 -25 -24 -24 -24 -24 -24 -23 -23 -23 -22 -21
-24 -24 -25 -25 -24 -24 -25 -25 -26 -25 -25 -24 -25 -26 -25 -25 -25 -25 -24 -24 -24 -24 -24 -23 -23 -23 -22
-25 -25 -25 -25 -25 -25 -25 -26 -25 -25 -25 -25 -25 -25 -25 -25 -25 -25 -24 -24 -24 -24 -24 -24 -23 -23 -22
-26 -25 -25 -25 -25 -25 -26 -26 -26 -26 -25 -25 -25 -25 -25 -25 -25 -25 -25 -25 -25 -24 -24 -24 -24 -24 -22
-26 -26 -26 -26 -26 -26 -26 -26 -26 -25 -25 -25 -25 -25 -25 -25 -25 -25 -25 -25 -25 -25 -24 -24 -24 -24 -23
-27 -27 -27 -27 -27 -26 -26 -26 -26 -25 -25 -25 -25 -25 -25 -25 -25 -25 -25 -25 -25 -25 -25 -25 -25 -24 -24
-28 -28 -28 -27 -27 -27 -26 -26 -26 -25 -25 -25 -25 -25 -25 -25 -25 -25 -25 -25 -25 -25 -26 -26 -25 -25 -24
-28 -28 -27 -27 -27 -26 -26 -26 -25 -25 -25 -25 -25 -25 -25 -25 -25 -25 -25 -25 -25 -25 -25 -25 -24 -24 -24
-28 -28 -28 -27 -27 -26 -26 -25 -25 -25 -25 -25 -25 -25 -25 -25 -25 -25 -25 -25 -25 -25 -25 -25 -25 -24 -24
-28 -28 -28 -27 -27 -26 -25 -25 -25 -25 -25 -25 -25 -25 -25 -25 -25 -25 -25 -25 -25 -25 -25 -25 -26 -25 -25
Height
5603 5597 5592 5588 5585 5582 5579 5575 5571 5569 5566 5562 5560 5558 5556 5555 5553 5552 5550 5551 5552 5554 5558 5561 5565 5568 5572
5586 5578 5573 5567 5564 5560 5556 5554 5551 5548 5544 5542 5540 5538 5536 5533 5531 5529 5528 5529 5532 5536 5539 5544 5548 5551 5556
5569 5558 5551 5544 5542 5538 5534 5532 5530 5527 5524 5522 5520 5519 5516 5512 5510 5509 5510 5511 5514 5519 5522 5527 5532 5535 5540
5548 5539 5530 5522 5519 5516 5514 5512 5510 5508 5506 5504 5503 5500 5496 5494 5493 5493 5493 5495 5499 5503 5507 5512 5517 5521 5525
5523 5515 5509 5502 5499 5498 5497 5494 5492 5490 5488 5487 5485 5484 5482 5479 5477 5477 5478 5479 5484 5488 5492 5496 5501 5506 5512
5495 5491 5486 5483 5480 5481 5480 5479 5478 5473 5473 5471 5469 5468 5467 5465 5464 5463 5464 5466 5470 5474 5478 5482 5487 5492 5498
5468 5468 5465 5464 5463 5464 5463 5463 5460 5458 5458 5458 5453 5453 5453 5452 5452 5450 5451 5454 5457 5461 5465 5468 5473 5480 5486
5443 5445 5445 5445 5447 5448 5448 5446 5445 5444 5445 5446 5440 5440 5440 5439 5439 5438 5439 5442 5445 5449 5453 5457 5463 5469 5475
5421 5424 5427 5429 5431 5432 5432 5431 5431 5431 5430 5431 5429 5428 5427 5427 5427 5427 5428 5430 5434 5438 5443 5448 5453 5459 5465
5401 5406 5410 5412 5414 5417 5417 5418 5418 5418 5417 5417 5417 5416 5415 5415 5416 5417 5418 5421 5424 5429 5434 5439 5444 5450 5455
5381 5388 5394 5397 5400 5403 5405 5406 5406 5406 5406 5406 5405 5404 5404 5404 5406 5408 5410 5413 5417 5420 5425 5430 5435 5440 5445
5366 5374 5380 5384 5387 5390 5393 5394 5395 5395 5394 5395 5394 5394 5395 5395 5396 5400 5402 5406 5410 5414 5418 5422 5427 5432 5436
5355 5361 5368 5372 5376 5379 5381 5383 5384 5383 5384 5385 5384 5385 5386 5387 5388 5392 5396 5399 5403 5407 5412 5416 5419 5423 5427
5345 5352 5357 5363 5366 5369 5371 5373 5373 5373 5374 5375 5376 5377 5378 5380 5382 5385 5390 5394 5398 5402 5406 5409 5413 5416 5420
5337 5345 5350 5354 5357 5360 5363 5363 5363 5364 5366 5367 5368 5369 5371 5374 5377 5380 5384 5387 5392 5396 5400 5402 5404 5408 5411
5332 5338 5342 5346 5349 5352 5354 5355 5355 5356 5359 5360 5361 5363 5365 5368 5371 5374 5376 5380 5384 5386 5390 5393 5393 5395 5399
5328 5332 5336 5340 5343 5345 5347 5348 5348 5350 5352 5353 5355 5357 5359 5361 5364 5366 5370 5373 5376 5378 5381 5384 5386 5384 5387
Wind_Speed
67 69 70 71 71 69 68 68 66 65 65 65 63 61 62 62 63 64 61 59 60 60 56 54 53 52 52
70 74 76 78 78 76 74 70 67 66 64 62 59 58 59 61 64 60 57 56 55 53 52 53 52 51 48
76 81 84 84 82 78 70 66 63 61 57 56 53 53 57 58 53 50 49 48 49 48 50 51 50 50 47
82 85 83 81 76 68 64 60 57 54 51 50 52 54 51 46 45 44 46 47 47 48 48 48 49 50 46
87 81 77 72 66 60 56 54 50 49 49 50 50 45 43 45 44 43 43 44 44 48 49 48 48 49 46
81 77 72 64 59 55 51 49 46 49 49 47 45 44 41 41 41 42 40 40 41 44 45 47 47 47 44
76 72 66 57 53 49 47 44 47 48 45 43 46 42 40 40 39 40 39 39 39 38 42 43 44 43 43
74 66 57 52 47 45 45 45 43 43 42 40 42 40 38 37 36 37 37 36 36 37 39 41 39 41 42
65 56 49 45 42 43 42 41 38 40 41 38 37 37 39 37 35 33 33 32 35 36 35 39 40 39 41
53 46 42 39 42 41 37 34 37 38 38 36 34 37 36 33 31 30 29 30 32 36 36 38 39 40 41
41 38 35 38 40 34 31 33 35 35 34 34 33 32 28 28 27 26 27 28 28 35 39 39 38 36 38
35 33 35 33 31 30 29 31 32 33 33 29 29 28 24 26 27 24 26 29 31 31 33 34 35 37 37
33 30 27 30 29 26 27 29 31 31 30 25 26 24 22 23 25 23 26 28 29 28 25 26 29 31 33
26 27 28 25 24 24 26 28 29 29 25 23 23 21 21 21 23 23 24 26 25 22 24 27 29 31 33
25 24 23 20 22 23 24 26 26 24 21 21 21 20 20 19 24 25 22 21 21 23 25 27 29 31 33
21 20 20 20 20 21 22 21 21 20 19 19 19 20 22 23 24 23 23 23 23 25 25 26 30 31 32
17 19 18 19 19 20 18 16 17 17 17 18 18 20 22 23 24 25 25 26 27 28 28 29 30 35 33
Wind_Direction
292 293 292 291 290 289 288 287 286 284 283 282 282 281 279 280 282 284 277 266 259 256 254 251 249 247 246
292 293 294 294 293 291 288 286 285 283 283 283 281 280 281 283 285 278 267 261 258 255 251 249 247 243 242
292 294 294 292 291 288 286 286 284 283 282 281 281 282 285 283 277 273 264 259 254 249 247 247 245 242 239
292 293 290 289 287 286 285 283 282 282 281 282 283 283 282 278 275 271 268 260 254 249 243 245 243 240 236
293 289 287 286 285 283 282 282 282 281 281 281 281 282 279 278 271 269 264 259 257 247 246 241 238 236 232
289 285 284 284 282 280 280 279 279 277 279 280 279 280 278 273 267 266 266 258 254 249 245 238 234 231 229
282 281 281 280 279 277 276 275 274 276 277 278 279 280 277 266 265 265 264 258 251 249 243 236 230 230 226
275 277 276 275 274 273 272 272 273 275 277 275 275 275 272 267 265 263 260 255 249 243 239 230 228 227 225
273 271 269 269 268 267 269 271 272 274 277 278 271 270 271 268 264 261 257 250 243 240 238 230 224 226 224
267 262 260 261 263 265 267 268 271 273 276 274 274 273 271 263 261 256 252 246 243 237 233 228 223 224 222
256 252 249 253 258 260 260 266 270 271 271 274 276 270 262 261 255 249 246 240 233 229 229 229 224 228 227
242 241 244 250 251 252 259 266 270 270 272 271 268 264 259 254 249 239 239 236 227 225 221 221 226 229 229
232 236 236 240 246 252 260 266 270 270 270 265 261 259 251 242 242 233 233 230 224 219 222 227 228 230 232
222 226 230 238 242 254 261 268 271 268 264 258 255 250 241 234 233 234 228 218 220 224 229 232 235 237 238
211 225 228 236 248 253 263 271 268 262 256 255 249 243 238 228 229 233 225 230 235 234 236 240 240 241 241
215 217 231 240 248 254 265 267 262 258 256 249 244 239 234 228 227 230 240 246 248 251 252 252 257 255 254
223 225 233 242 248 254 257 266 263 261 256 250 245 241 237 238 235 239 242 244 249 251 252 254 254 260 258